| time (UTC) | temp F | wind direction | speed MPH | gust MPH | rain 1hr in | rain 24hr in | rain mn in | humidity % | barometer mb |
| 20260904052836 | 74 | 123 | 2.0 | 3.0 | 0.00 | 0.00 | 0.00 | 97 | 1010.5 |
| 20260904052333 | 74 | 70 | 2.0 | 2.0 | 0.00 | 0.00 | 0.00 | 98 | 1010.5 |
| 20260904051829 | 74 | 127 | 1.0 | 1.0 | 0.00 | 0.00 | 0.00 | 98 | 1010.4 |
| 20260904051324 | 74 | 120 | 0.0 | 1.0 | 0.00 | 0.00 | 0.00 | 98 | 1010.4 |
| 20260904050819 | 74 | 128 | 0.0 | 0.0 | 0.00 | 0.00 | 0.00 | 97 | 1010.1 |
| 20260904050316 | 74 | 150 | 0.0 | 1.0 | 0.00 | 0.00 | 0.00 | 97 | 1010.2 |
| 20260904045810 | 74 | 74 | 1.0 | 2.0 | 0.00 | 0.03 | 0.03 | 97 | 1010.2 |
| 20260904045307 | 74 | 210 | 0.0 | 1.0 | 0.00 | 0.03 | 0.03 | 97 | 1010.3 |
| 20260904044759 | 75 | 127 | 0.0 | 0.0 | 0.00 | 0.03 | 0.03 | 96 | 1010.3 |
| 20260904044256 | 75 | 183 | 0.0 | 1.0 | 0.00 | 0.03 | 0.03 | 95 | 1010.2 |
| 20260904043746 | 75 | 78 | 0.0 | 2.0 | 0.00 | 0.03 | 0.03 | 96 | 1010.0 |
| 20260904043243 | 75 | 76 | 2.0 | 2.0 | 0.00 | 0.03 | 0.03 | 96 | 1010.1 |
| 20260904042743 | 75 | 109 | 2.0 | 2.0 | 0.00 | 0.03 | 0.03 | 97 | 1010.1 |
| 20260904042239 | 74 | 89 | 1.0 | 2.0 | 0.00 | 0.03 | 0.03 | 98 | 1010.2 |
| 20260904041738 | 74 | 173 | 0.0 | 0.0 | 0.00 | 0.03 | 0.03 | 98 | 1010.1 |
| 20260904041235 | 74 | 114 | 0.0 | 1.0 | 0.00 | 0.03 | 0.03 | 98 | 1010.1 |
| 20260904040731 | 75 | 96 | 1.0 | 1.0 | 0.00 | 0.03 | 0.03 | 97 | 1010.2 |
| 20260904040226 | 75 | 99 | 1.0 | 1.0 | 0.00 | 0.03 | 0.03 | 96 | 1010.2 |
| 20260904035722 | 75 | 81 | 1.0 | 1.0 | 0.00 | 0.03 | 0.03 | 96 | 1010.2 |
| 20260904035217 | 75 | 174 | 0.0 | 1.0 | 0.00 | 0.03 | 0.03 | 96 | 1010.2 |
| 20260904034716 | 75 | 130 | 0.0 | 1.0 | 0.00 | 0.03 | 0.03 | 97 | 1010.2 |
| 20260904034212 | 75 | 203 | 0.0 | 0.0 | 0.00 | 0.03 | 0.03 | 96 | 1010.1 |
| 20260904033708 | 76 | 123 | 0.0 | 0.0 | 0.00 | 0.03 | 0.03 | 96 | 1010.1 |
| 20260904033204 | 76 | 115 | 1.0 | 1.0 | 0.00 | 0.03 | 0.03 | 95 | 1010.1 |
| 20260904032700 | 76 | 137 | 1.0 | 2.0 | 0.00 | 0.03 | 0.03 | 94 | 1010.1 |
| 20260904032200 | 76 | 339 | 0.0 | 2.0 | 0.00 | 0.03 | 0.03 | 94 | 1010.0 |
| 20260904031700 | 76 | 119 | 1.0 | 2.0 | 0.00 | 0.03 | 0.03 | 95 | 1009.9 |
| 20260904031155 | 76 | 107 | 4.0 | 4.0 | 0.00 | 0.03 | 0.03 | 96 | 1009.7 |
| 20260904030651 | 76 | 167 | 1.0 | 3.0 | 0.00 | 0.03 | 0.03 | 97 | 1009.9 |
| 20260904030146 | 75 | 99 | 1.0 | 3.0 | 0.00 | 0.03 | 0.03 | 97 | 1010.1 |
| 20260904025642 | 76 | 114 | 0.0 | 3.0 | 0.00 | 0.03 | 0.03 | 97 | 1010.1 |
| 20260904025137 | 76 | 23 | 1.0 | 2.0 | 0.00 | 0.03 | 0.03 | 97 | 1009.9 |
| 20260904024632 | 76 | 151 | 0.0 | 1.0 | 0.00 | 0.03 | 0.03 | 96 | 1009.9 |
| 20260904024128 | 77 | 283 | 0.0 | 1.0 | 0.00 | 0.03 | 0.03 | 95 | 1009.9 |
| 20260904023623 | 77 | 24 | 2.0 | 3.0 | 0.00 | 0.03 | 0.03 | 94 | 1009.9 |
| 20260904023114 | 77 | 72 | 1.0 | 2.0 | 0.00 | 0.03 | 0.03 | 93 | 1009.7 |
| 20260904022614 | 77 | 82 | 1.0 | 3.0 | 0.00 | 0.03 | 0.03 | 93 | 1010.0 |
| 20260904022111 | 77 | 141 | 2.0 | 3.0 | 0.00 | 0.03 | 0.03 | 93 | 1009.7 |
| 20260904021606 | 77 | 97 | 3.0 | 3.0 | 0.00 | 0.03 | 0.03 | 93 | 1009.9 |
| 20260904021101 | 77 | 113 | 2.0 | 4.0 | 0.00 | 0.03 | 0.03 | 93 | 1009.6 |
| 20260904020556 | 77 | 99 | 2.0 | 4.0 | 0.05 | 0.03 | 0.03 | 93 | 1009.3 |
| 20260904020050 | 78 | 150 | 1.0 | 3.0 | 0.19 | 0.03 | 0.03 | 91 | 1009.5 |
| 20260904015545 | 81 | 63 | 1.0 | 3.0 | 0.14 | 0.02 | 0.02 | 85 | 1009.9 |
| 20260904015044 | 81 | 325 | 2.0 | 2.0 | 0.00 | 0.00 | 0.00 | 81 | 1009.9 |
| 20260904014538 | 81 | 5 | 2.0 | 3.0 | 0.00 | 0.00 | 0.00 | 81 | 1009.6 |
| 20260904014034 | 81 | 28 | 0.0 | 1.0 | 0.00 | 0.00 | 0.00 | 80 | 1009.4 |
| 20260904013531 | 82 | 117 | 0.0 | 1.0 | 0.00 | 0.00 | 0.00 | 80 | 1009.7 |
| 20260904013027 | 82 | 165 | 1.0 | 3.0 | 0.00 | 0.00 | 0.00 | 79 | 1009.5 |
| 20260904012526 | 82 | 122 | 2.0 | 3.0 | 0.00 | 0.00 | 0.00 | 79 | 1009.2 |
| 20260904012020 | 82 | 110 | 3.0 | 3.0 | 0.00 | 0.00 | 0.00 | 79 | 1009.0 |
| 20260904011514 | 82 | 115 | 3.0 | 3.0 | 0.00 | 0.00 | 0.00 | 78 | 1009.3 |
| 20260904011010 | 82 | 166 | 1.0 | 2.0 | 0.00 | 0.00 | 0.00 | 78 | 1009.5 |
| 20260904010506 | 83 | 110 | 1.0 | 2.0 | 0.00 | 0.00 | 0.00 | 77 | 1009.4 |
| 20260904010002 | 83 | 82 | 2.0 | 2.0 | 0.00 | 0.00 | 0.00 | 77 | 1009.3 |
| 20260904005456 | 84 | 85 | 4.0 | 4.0 | 0.00 | 0.00 | 0.00 | 76 | 1009.4 |
| 20260904004951 | 84 | 88 | 2.0 | 2.0 | 0.00 | 0.00 | 0.00 | 73 | 1009.3 |
| 20260904004448 | 85 | 102 | 2.0 | 2.0 | 0.00 | 0.00 | 0.00 | 71 | 1009.4 |
| 20260904003947 | 85 | 79 | 2.0 | 3.0 | 0.00 | 0.00 | 0.00 | 69 | 1009.3 |
| 20260904003443 | 85 | 115 | 1.0 | 2.0 | 0.00 | 0.00 | 0.00 | 69 | 1009.3 |
| 20260904002938 | 86 | 115 | 1.0 | 2.0 | 0.00 | 0.00 | 0.00 | 69 | 1009.3 |
| 20260904002435 | 86 | 134 | 1.0 | 4.0 | 0.00 | 0.00 | 0.00 | 68 | 1009.0 |
| 20260904001934 | 87 | 87 | 1.0 | 3.0 | 0.00 | 0.00 | 0.00 | 67 | 1009.0 |
| 20260904001429 | 87 | 73 | 2.0 | 3.0 | 0.00 | 0.00 | 0.00 | 66 | 1008.9 |
| 20260904000924 | 88 | 170 | 1.0 | 1.0 | 0.00 | 0.00 | 0.00 | 65 | 1008.9 |
| 20260904000425 | 88 | 68 | 0.0 | 2.0 | 0.00 | 0.00 | 0.00 | 65 | 1008.9 |
| 20260903235919 | 88 | 202 | 1.0 | 1.0 | 0.00 | 0.00 | 0.00 | 64 | 1009.0 |
| 20260903235415 | 89 | 223 | 0.0 | 2.0 | 0.00 | 0.00 | 0.00 | 64 | 1008.8 |
| 20260903234914 | 88 | 214 | 0.0 | 6.0 | 0.00 | 0.00 | 0.00 | 64 | 1008.7 |
| 20260903234410 | 88 | 280 | 2.0 | 4.0 | 0.00 | 0.00 | 0.00 | 64 | 1008.7 |
| 20260903233906 | 89 | 176 | 2.0 | 3.0 | 0.00 | 0.00 | 0.00 | 64 | 1008.5 |
| 20260903233402 | 89 | 236 | 2.0 | 4.0 | 0.00 | 0.00 | 0.00 | 63 | 1008.5 |
| 20260903232902 | 89 | 161 | 2.0 | 4.0 | 0.00 | 0.00 | 0.00 | 64 | 1008.4 |
| 20260903232357 | 89 | 185 | 2.0 | 6.0 | 0.00 | 0.00 | 0.00 | 64 | 1008.5 |
| 20260903231856 | 89 | 258 | 1.0 | 3.0 | 0.00 | 0.00 | 0.00 | 63 | 1008.3 |
| 20260903231351 | 89 | 247 | 3.0 | 7.0 | 0.00 | 0.00 | 0.00 | 63 | 1008.5 |
| 20260903230847 | 89 | 224 | 2.0 | 3.0 | 0.00 | 0.00 | 0.00 | 64 | 1008.3 |
| 20260903230341 | 90 | 110 | 1.0 | 3.0 | 0.00 | 0.00 | 0.00 | 63 | 1008.3 |
| 20260903225838 | 89 | 166 | 3.0 | 6.0 | 0.00 | 0.00 | 0.00 | 64 | 1008.4 |
| 20260903225328 | 89 | 67 | 4.0 | 7.0 | 0.00 | 0.00 | 0.00 | 63 | 1008.4 |
| 20260903224824 | 90 | 86 | 7.0 | 9.0 | 0.00 | 0.00 | 0.00 | 62 | 1008.2 |
| 20260903224320 | 90 | 164 | 1.0 | 6.0 | 0.00 | 0.00 | 0.00 | 62 | 1008.3 |
| 20260903223815 | 90 | 177 | 2.0 | 3.0 | 0.00 | 0.00 | 0.00 | 61 | 1008.2 |
| 20260903223309 | 89 | 164 | 1.0 | 6.0 | 0.00 | 0.00 | 0.00 | 62 | 1008.3 |
| 20260903222804 | 89 | 251 | 1.0 | 4.0 | 0.00 | 0.00 | 0.00 | 62 | 1008.2 |
| 20260903222305 | 89 | 138 | 3.0 | 8.0 | 0.00 | 0.00 | 0.00 | 62 | 1008.1 |
| 20260903221757 | 90 | 247 | 1.0 | 9.0 | 0.00 | 0.00 | 0.00 | 61 | 1008.3 |
| 20260903221256 | 91 | 80 | 4.0 | 6.0 | 0.00 | 0.00 | 0.00 | 60 | 1008.3 |
| 20260903220754 | 90 | 139 | 1.0 | 4.0 | 0.00 | 0.00 | 0.00 | 61 | 1008.4 |
| 20260903220249 | 90 | 151 | 2.0 | 4.0 | 0.00 | 0.00 | 0.00 | 62 | 1008.5 |
| 20260903215742 | 90 | 86 | 2.0 | 6.0 | 0.00 | 0.00 | 0.00 | 60 | 1008.4 |
| 20260903215238 | 90 | 108 | 1.0 | 4.0 | 0.00 | 0.00 | 0.00 | 62 | 1008.5 |
| 20260903214735 | 89 | 82 | 4.0 | 8.0 | 0.00 | 0.00 | 0.00 | 61 | 1008.5 |
| 20260903214232 | 90 | 255 | 2.0 | 6.0 | 0.00 | 0.00 | 0.00 | 61 | 1008.7 |
| 20260903213725 | 90 | 174 | 1.0 | 7.0 | 0.00 | 0.00 | 0.00 | 60 | 1008.5 |
| 20260903213222 | 90 | 150 | 5.0 | 10.0 | 0.00 | 0.00 | 0.00 | 61 | 1008.5 |
| 20260903212712 | 91 | 109 | 3.0 | 9.0 | 0.00 | 0.00 | 0.00 | 59 | 1008.6 |
| 20260903212208 | 91 | 301 | 1.0 | 3.0 | 0.00 | 0.00 | 0.00 | 58 | 1008.6 |
| 20260903211702 | 91 | 67 | 2.0 | 6.0 | 0.00 | 0.00 | 0.00 | 57 | 1008.5 |
| 20260903211159 | 91 | 275 | 5.0 | 7.0 | 0.00 | 0.00 | 0.00 | 57 | 1008.7 |
| 20260903210654 | 90 | 327 | 3.0 | 4.0 | 0.00 | 0.00 | 0.00 | 57 | 1008.4 |
| 20260903210150 | 91 | 242 | 5.0 | 6.0 | 0.00 | 0.00 | 0.00 | 58 | 1008.6 |
| 20260903205649 | 91 | 225 | 5.0 | 7.0 | 0.00 | 0.00 | 0.00 | 58 | 1008.5 |
| 20260903205148 | 91 | 178 | 2.0 | 4.0 | 0.00 | 0.00 | 0.00 | 59 | 1008.5 |
| 20260903204644 | 91 | 83 | 6.0 | 9.0 | 0.00 | 0.00 | 0.00 | 58 | 1008.4 |
| 20260903204140 | 91 | 202 | 1.0 | 6.0 | 0.00 | 0.00 | 0.00 | 58 | 1008.4 |
| 20260903203635 | 89 | 103 | 5.0 | 8.0 | 0.00 | 0.00 | 0.00 | 62 | 1008.1 |
| 20260903203130 | 91 | 99 | 6.0 | 9.0 | 0.00 | 0.00 | 0.00 | 60 | 1008.3 |
| 20260903202625 | 89 | 139 | 4.0 | 6.0 | 0.00 | 0.00 | 0.00 | 60 | 1008.2 |
| 20260903202120 | 90 | 175 | 3.0 | 4.0 | 0.00 | 0.00 | 0.00 | 59 | 1008.3 |
| 20260903201614 | 89 | 124 | 3.0 | 11.0 | 0.00 | 0.00 | 0.00 | 63 | 1008.4 |
| 20260903201114 | 91 | 94 | 9.0 | 11.0 | 0.00 | 0.00 | 0.00 | 59 | 1008.4 |
| 20260903200609 | 91 | 193 | 2.0 | 6.0 | 0.00 | 0.00 | 0.00 | 57 | 1008.4 |
| 20260903200104 | 90 | 189 | 3.0 | 7.0 | 0.00 | 0.00 | 0.00 | 58 | 1008.3 |
| 20260903195600 | 90 | 91 | 2.0 | 7.0 | 0.00 | 0.00 | 0.00 | 57 | 1008.4 |
| 20260903195055 | 90 | 190 | 6.0 | 9.0 | 0.00 | 0.00 | 0.00 | 57 | 1008.3 |
| 20260903194545 | 91 | 143 | 2.0 | 3.0 | 0.00 | 0.00 | 0.00 | 58 | 1008.2 |
| 20260903194040 | 90 | 81 | 4.0 | 9.0 | 0.00 | 0.00 | 0.00 | 58 | 1008.4 |
| 20260903193531 | 89 | 84 | 3.0 | 8.0 | 0.00 | 0.00 | 0.00 | 59 | 1008.2 |
| 20260903193026 | 89 | 54 | 7.0 | 9.0 | 0.00 | 0.00 | 0.00 | 60 | 1008.4 |
| 20260903192522 | 90 | 144 | 6.0 | 10.0 | 0.00 | 0.00 | 0.00 | 59 | 1008.4 |
| 20260903192017 | 90 | 205 | 1.0 | 6.0 | 0.00 | 0.00 | 0.00 | 57 | 1008.5 |
| 20260903191513 | 89 | 218 | 2.0 | 4.0 | 0.00 | 0.00 | 0.00 | 60 | 1008.4 |
| 20260903191013 | 89 | 155 | 4.0 | 9.0 | 0.00 | 0.00 | 0.00 | 59 | 1008.5 |
| 20260903190506 | 89 | 163 | 2.0 | 8.0 | 0.00 | 0.00 | 0.00 | 58 | 1008.7 |
| 20260903190000 | 89 | 237 | 4.0 | 7.0 | 0.00 | 0.00 | 0.00 | 59 | 1008.8 |
| 20260903185456 | 88 | 170 | 5.0 | 10.0 | 0.00 | 0.00 | 0.00 | 60 | 1009.0 |
| 20260903184956 | 88 | 228 | 7.0 | 13.0 | 0.00 | 0.00 | 0.00 | 59 | 1009.0 |
| 20260903184448 | 90 | 240 | 6.0 | 8.0 | 0.00 | 0.00 | 0.00 | 57 | 1009.1 |
| 20260903183947 | 89 | 151 | 4.0 | 7.0 | 0.00 | 0.00 | 0.00 | 60 | 1009.1 |
| 20260903183442 | 89 | 235 | 5.0 | 8.0 | 0.00 | 0.00 | 0.00 | 59 | 1009.3 |
| 20260903182942 | 89 | 301 | 1.0 | 9.0 | 0.00 | 0.00 | 0.00 | 59 | 1009.3 |
| 20260903182441 | 88 | 145 | 5.0 | 13.0 | 0.00 | 0.00 | 0.00 | 61 | 1009.5 |
| 20260903181936 | 88 | 160 | 2.0 | 7.0 | 0.00 | 0.00 | 0.00 | 60 | 1009.3 |
| 20260903181430 | 88 | 84 | 4.0 | 7.0 | 0.00 | 0.00 | 0.00 | 61 | 1009.3 |
| 20260903180930 | 88 | 170 | 2.0 | 8.0 | 0.00 | 0.00 | 0.00 | 60 | 1009.5 |
| 20260903180425 | 87 | 155 | 3.0 | 9.0 | 0.00 | 0.00 | 0.00 | 60 | 1009.7 |
| 20260903175924 | 88 | 242 | 6.0 | 11.0 | 0.00 | 0.00 | 0.00 | 61 | 1009.7 |
| 20260903175419 | 87 | 244 | 1.0 | 3.0 | 0.00 | 0.00 | 0.00 | 60 | 1009.5 |
| 20260903174913 | 86 | 2 | 2.0 | 4.0 | 0.00 | 0.00 | 0.00 | 62 | 1009.7 |
| 20260903174408 | 86 | 84 | 4.0 | 10.0 | 0.00 | 0.00 | 0.00 | 63 | 1009.6 |
| 20260903173903 | 86 | 98 | 2.0 | 9.0 | 0.00 | 0.00 | 0.00 | 63 | 1009.7 |
| 20260903173358 | 86 | 184 | 2.0 | 3.0 | 0.00 | 0.00 | 0.00 | 63 | 1010.0 |
| 20260903172853 | 86 | 142 | 4.0 | 8.0 | 0.00 | 0.00 | 0.00 | 62 | 1009.9 |
| 20260903172348 | 86 | 73 | 2.0 | 14.0 | 0.00 | 0.00 | 0.00 | 63 | 1010.1 |
| 20260903171843 | 85 | 194 | 1.0 | 6.0 | 0.00 | 0.00 | 0.00 | 64 | 1010.1 |
| 20260903171338 | 86 | 99 | 4.0 | 9.0 | 0.00 | 0.00 | 0.00 | 62 | 1009.9 |
| 20260903170837 | 85 | 223 | 2.0 | 7.0 | 0.00 | 0.00 | 0.00 | 64 | 1010.3 |
| 20260903170333 | 85 | 221 | 2.0 | 3.0 | 0.00 | 0.00 | 0.00 | 62 | 1010.0 |
| 20260903165831 | 85 | 157 | 2.0 | 7.0 | 0.00 | 0.00 | 0.00 | 63 | 1010.2 |
| 20260903165331 | 85 | 205 | 3.0 | 6.0 | 0.00 | 0.00 | 0.00 | 62 | 1010.1 |
| 20260903164826 | 86 | 55 | 3.0 | 10.0 | 0.00 | 0.00 | 0.00 | 63 | 1010.1 |
| 20260903164321 | 85 | 101 | 2.0 | 4.0 | 0.00 | 0.00 | 0.00 | 63 | 1010.1 |
| 20260903163820 | 84 | 98 | 4.0 | 8.0 | 0.00 | 0.00 | 0.00 | 65 | 1010.4 |
| 20260903163318 | 84 | 92 | 4.0 | 15.0 | 0.00 | 0.00 | 0.00 | 66 | 1010.3 |
| 20260903162813 | 84 | 171 | 2.0 | 3.0 | 0.00 | 0.00 | 0.00 | 65 | 1010.2 |
| 20260903162309 | 83 | 238 | 1.0 | 3.0 | 0.00 | 0.00 | 0.00 | 67 | 1010.2 |
| 20260903161805 | 83 | 169 | 2.0 | 7.0 | 0.00 | 0.00 | 0.00 | 68 | 1010.3 |
| 20260903161300 | 83 | 64 | 2.0 | 11.0 | 0.00 | 0.00 | 0.00 | 69 | 1010.4 |
| 20260903160756 | 83 | 158 | 5.0 | 8.0 | 0.00 | 0.00 | 0.00 | 69 | 1010.2 |
| 20260903160255 | 83 | 57 | 2.0 | 4.0 | 0.00 | 0.00 | 0.00 | 66 | 1010.3 |
| 20260903155753 | 83 | 169 | 3.0 | 10.0 | 0.00 | 0.00 | 0.00 | 69 | 1010.4 |
| 20260903155248 | 82 | 94 | 5.0 | 7.0 | 0.00 | 0.00 | 0.00 | 68 | 1010.4 |
| 20260903154744 | 81 | 84 | 7.0 | 9.0 | 0.00 | 0.00 | 0.00 | 71 | 1010.4 |
| 20260903154240 | 82 | 94 | 5.0 | 8.0 | 0.00 | 0.00 | 0.00 | 69 | 1010.3 |
| 20260903153735 | 81 | 104 | 5.0 | 8.0 | 0.00 | 0.00 | 0.00 | 71 | 1010.4 |
| 20260903153231 | 80 | 149 | 7.0 | 14.0 | 0.00 | 0.00 | 0.00 | 74 | 1010.4 |
| 20260903152727 | 79 | 79 | 8.0 | 11.0 | 0.00 | 0.00 | 0.00 | 75 | 1010.3 |
| 20260903152223 | 79 | 48 | 4.0 | 14.0 | 0.00 | 0.00 | 0.00 | 74 | 1010.3 |
| 20260903151722 | 79 | 71 | 5.0 | 9.0 | 0.00 | 0.00 | 0.00 | 76 | 1010.5 |
| 20260903151218 | 79 | 83 | 4.0 | 6.0 | 0.00 | 0.00 | 0.00 | 76 | 1010.4 |
| 20260903150713 | 79 | 80 | 6.0 | 10.0 | 0.00 | 0.00 | 0.00 | 75 | 1010.6 |
| 20260903150207 | 77 | 127 | 2.0 | 10.0 | 0.00 | 0.00 | 0.00 | 78 | 1010.7 |
| 20260903145702 | 76 | 173 | 2.0 | 7.0 | 0.00 | 0.00 | 0.00 | 80 | 1010.7 |
| 20260903145157 | 76 | 65 | 2.0 | 8.0 | 0.00 | 0.00 | 0.00 | 81 | 1010.5 |
| 20260903144656 | 77 | 98 | 3.0 | 9.0 | 0.00 | 0.00 | 0.00 | 80 | 1011.2 |
| 20260903144152 | 75 | 97 | 5.0 | 6.0 | 0.00 | 0.00 | 0.00 | 80 | 1011.0 |
| 20260903143648 | 75 | 153 | 3.0 | 9.0 | 0.00 | 0.00 | 0.00 | 82 | 1010.9 |
| 20260903143143 | 75 | 158 | 2.0 | 8.0 | 0.00 | 0.00 | 0.00 | 82 | 1010.8 |
| 20260903142639 | 74 | 95 | 7.0 | 14.0 | 0.00 | 0.00 | 0.00 | 83 | 1010.9 |
| 20260903142136 | 74 | 175 | 2.0 | 8.0 | 0.00 | 0.00 | 0.00 | 82 | 1011.0 |
| 20260903141631 | 73 | 135 | 2.0 | 11.0 | 0.00 | 0.00 | 0.00 | 84 | 1011.0 |
| 20260903141125 | 73 | 138 | 1.0 | 6.0 | 0.00 | 0.00 | 0.00 | 83 | 1011.2 |
| 20260903140622 | 74 | 108 | 3.0 | 7.0 | 0.00 | 0.00 | 0.00 | 82 | 1011.3 |
| 20260903140117 | 74 | 111 | 7.0 | 10.0 | 0.00 | 0.00 | 0.00 | 82 | 1011.2 |
| 20260903135612 | 73 | 124 | 4.0 | 9.0 | 0.00 | 0.00 | 0.00 | 83 | 1011.2 |
| 20260903135107 | 73 | 48 | 4.0 | 9.0 | 0.00 | 0.00 | 0.00 | 84 | 1011.2 |
| 20260903134606 | 72 | 17 | 3.0 | 8.0 | 0.00 | 0.00 | 0.00 | 84 | 1011.1 |
| 20260903134102 | 72 | 121 | 6.0 | 8.0 | 0.00 | 0.00 | 0.00 | 84 | 1011.0 |
| 20260903133559 | 72 | 126 | 3.0 | 7.0 | 0.00 | 0.00 | 0.00 | 84 | 1011.1 |
| 20260903133055 | 72 | 80 | 2.0 | 6.0 | 0.00 | 0.00 | 0.00 | 84 | 1011.4 |
| 20260903132550 | 71 | 114 | 4.0 | 8.0 | 0.00 | 0.00 | 0.00 | 85 | 1011.2 |
| 20260903132044 | 71 | 195 | 3.0 | 8.0 | 0.00 | 0.00 | 0.00 | 85 | 1011.2 |
| 20260903131544 | 70 | 116 | 5.0 | 7.0 | 0.00 | 0.00 | 0.00 | 85 | 1011.3 |
| 20260903131038 | 70 | 100 | 7.0 | 9.0 | 0.00 | 0.00 | 0.00 | 85 | 1011.3 |
| 20260903130532 | 70 | 114 | 4.0 | 7.0 | 0.00 | 0.00 | 0.00 | 85 | 1011.3 |
| 20260903130027 | 70 | 170 | 2.0 | 7.0 | 0.00 | 0.00 | 0.00 | 85 | 1011.4 |
| 20260903125525 | 69 | 98 | 4.0 | 4.0 | 0.00 | 0.00 | 0.00 | 85 | 1011.4 |
| 20260903125021 | 69 | 72 | 5.0 | 6.0 | 0.00 | 0.00 | 0.00 | 86 | 1011.5 |
| 20260903124515 | 69 | 84 | 2.0 | 4.0 | 0.00 | 0.00 | 0.00 | 86 | 1011.3 |
| 20260903124015 | 69 | 154 | 2.0 | 7.0 | 0.00 | 0.00 | 0.00 | 86 | 1011.5 |
| 20260903123509 | 68 | 68 | 1.0 | 7.0 | 0.00 | 0.00 | 0.00 | 87 | 1011.5 |
| 20260903123008 | 68 | 124 | 2.0 | 4.0 | 0.00 | 0.00 | 0.00 | 87 | 1011.3 |
| 20260903122502 | 68 | 94 | 2.0 | 7.0 | 0.00 | 0.00 | 0.00 | 87 | 1011.3 |
| 20260903122002 | 68 | 95 | 4.0 | 4.0 | 0.00 | 0.00 | 0.00 | 87 | 1011.4 |
| 20260903121456 | 67 | 83 | 4.0 | 6.0 | 0.00 | 0.00 | 0.00 | 87 | 1011.4 |
| 20260903120953 | 67 | 97 | 2.0 | 3.0 | 0.00 | 0.00 | 0.00 | 87 | 1011.6 |
| 20260903120451 | 67 | 64 | 3.0 | 6.0 | 0.00 | 0.00 | 0.00 | 87 | 1011.7 |
| 20260903115950 | 67 | 81 | 2.0 | 8.0 | 0.00 | 0.00 | 0.00 | 87 | 1011.6 |
| 20260903115449 | 67 | 96 | 3.0 | 4.0 | 0.00 | 0.00 | 0.00 | 87 | 1011.6 |
| 20260903114944 | 67 | 52 | 2.0 | 3.0 | 0.00 | 0.00 | 0.00 | 87 | 1011.5 |
| 20260903114440 | 67 | 113 | 2.0 | 4.0 | 0.00 | 0.00 | 0.00 | 86 | 1011.6 |
| 20260903113935 | 67 | 93 | 4.0 | 7.0 | 0.00 | 0.00 | 0.00 | 86 | 1011.4 |
| 20260903113432 | 67 | 59 | 3.0 | 4.0 | 0.00 | 0.00 | 0.00 | 87 | 1011.7 |
| 20260903112931 | 67 | 117 | 3.0 | 6.0 | 0.00 | 0.00 | 0.00 | 86 | 1011.7 |
| 20260903112427 | 67 | 77 | 3.0 | 4.0 | 0.00 | 0.00 | 0.00 | 86 | 1011.9 |
| 20260903111926 | 67 | 53 | 2.0 | 4.0 | 0.00 | 0.00 | 0.00 | 86 | 1011.8 |
| 20260903111421 | 68 | 280 | 0.0 | 4.0 | 0.00 | 0.00 | 0.00 | 85 | 1011.9 |
| 20260903110918 | 68 | 115 | 1.0 | 4.0 | 0.00 | 0.00 | 0.00 | 85 | 1011.9 |
| 20260903110413 | 67 | 54 | 2.0 | 2.0 | 0.00 | 0.00 | 0.00 | 85 | 1011.8 |
| 20260903105908 | 68 | 101 | 0.0 | 3.0 | 0.00 | 0.00 | 0.00 | 84 | 1011.8 |
| 20260903105403 | 68 | 114 | 1.0 | 4.0 | 0.00 | 0.00 | 0.00 | 84 | 1011.8 |
| 20260903104902 | 68 | 105 | 2.0 | 3.0 | 0.00 | 0.00 | 0.00 | 84 | 1011.8 |
| 20260903104357 | 68 | 113 | 4.0 | 6.0 | 0.00 | 0.00 | 0.00 | 84 | 1011.7 |
| 20260903103854 | 68 | 205 | 0.0 | 1.0 | 0.00 | 0.00 | 0.00 | 84 | 1011.5 |
| 20260903103350 | 68 | 81 | 4.0 | 4.0 | 0.00 | 0.00 | 0.00 | 83 | 1011.6 |
| 20260903102844 | 68 | 85 | 2.0 | 3.0 | 0.00 | 0.00 | 0.00 | 83 | 1011.6 |
| 20260903102339 | 68 | 87 | 2.0 | 4.0 | 0.00 | 0.00 | 0.00 | 82 | 1011.5 |
| 20260903101838 | 68 | 105 | 1.0 | 3.0 | 0.00 | 0.00 | 0.00 | 82 | 1011.5 |
| 20260903101328 | 68 | 77 | 2.0 | 3.0 | 0.00 | 0.00 | 0.00 | 82 | 1011.4 |
| 20260903100823 | 68 | 67 | 2.0 | 3.0 | 0.00 | 0.00 | 0.00 | 82 | 1011.6 |
| 20260903100318 | 68 | 66 | 2.0 | 3.0 | 0.00 | 0.00 | 0.00 | 82 | 1011.6 |
| 20260903095815 | 68 | 49 | 2.0 | 6.0 | 0.00 | 0.00 | 0.00 | 81 | 1011.5 |
| 20260903095309 | 68 | 98 | 1.0 | 6.0 | 0.00 | 0.00 | 0.00 | 81 | 1011.7 |
| 20260903094805 | 68 | 131 | 2.0 | 4.0 | 0.00 | 0.00 | 0.00 | 81 | 1011.8 |
| 20260903094304 | 68 | 94 | 3.0 | 4.0 | 0.00 | 0.00 | 0.00 | 81 | 1011.8 |
| 20260903093800 | 68 | 108 | 4.0 | 4.0 | 0.00 | 0.00 | 0.00 | 81 | 1011.8 |
| 20260903093255 | 68 | 125 | 0.0 | 4.0 | 0.00 | 0.00 | 0.00 | 81 | 1011.8 |
| 20260903092756 | 68 | 138 | 4.0 | 6.0 | 0.00 | 0.00 | 0.00 | 80 | 1011.9 |
| 20260903092250 | 68 | 77 | 1.0 | 3.0 | 0.00 | 0.00 | 0.00 | 81 | 1011.9 |
| 20260903091749 | 68 | 85 | 2.0 | 2.0 | 0.00 | 0.00 | 0.00 | 80 | 1012.1 |
| 20260903091243 | 68 | 94 | 3.0 | 4.0 | 0.00 | 0.00 | 0.00 | 80 | 1011.9 |
| 20260903090739 | 68 | 81 | 1.0 | 7.0 | 0.00 | 0.00 | 0.00 | 80 | 1011.8 |
| 20260903090238 | 68 | 67 | 1.0 | 4.0 | 0.00 | 0.00 | 0.00 | 79 | 1012.0 |
| 20260903085737 | 68 | 45 | 2.0 | 3.0 | 0.00 | 0.00 | 0.00 | 80 | 1012.0 |
| 20260903085232 | 68 | 180 | 0.0 | 1.0 | 0.00 | 0.00 | 0.00 | 80 | 1011.9 |
| 20260903084730 | 68 | 146 | 1.0 | 2.0 | 0.00 | 0.00 | 0.00 | 80 | 1012.0 |
| 20260903084220 | 69 | 80 | 2.0 | 2.0 | 0.00 | 0.00 | 0.00 | 79 | 1012.0 |
| 20260903083715 | 69 | 96 | 2.0 | 3.0 | 0.00 | 0.00 | 0.00 | 79 | 1012.0 |
| 20260903083209 | 69 | 65 | 3.0 | 3.0 | 0.00 | 0.00 | 0.00 | 79 | 1012.1 |
| 20260903082703 | 69 | 100 | 1.0 | 6.0 | 0.00 | 0.00 | 0.00 | 79 | 1012.1 |
| 20260903082200 | 69 | 82 | 1.0 | 1.0 | 0.00 | 0.00 | 0.00 | 78 | 1011.9 |
| 20260903081659 | 69 | 75 | 2.0 | 4.0 | 0.00 | 0.00 | 0.00 | 78 | 1012.0 |
| 20260903081155 | 69 | 167 | 0.0 | 1.0 | 0.00 | 0.00 | 0.00 | 78 | 1012.5 |
| 20260903080651 | 69 | 82 | 1.0 | 3.0 | 0.00 | 0.00 | 0.00 | 77 | 1012.0 |
| 20260903080149 | 69 | 112 | 2.0 | 4.0 | 0.00 | 0.00 | 0.00 | 77 | 1012.0 |
| 20260903075647 | 69 | 99 | 2.0 | 6.0 | 0.00 | 0.00 | 0.00 | 77 | 1012.2 |
| 20260903075143 | 69 | 98 | 1.0 | 6.0 | 0.00 | 0.00 | 0.00 | 77 | 1012.4 |
| 20260903074642 | 69 | 120 | 1.0 | 9.0 | 0.00 | 0.00 | 0.00 | 77 | 1012.5 |
| 20260903074137 | 69 | 89 | 1.0 | 1.0 | 0.00 | 0.00 | 0.00 | 78 | 1012.2 |
| 20260903073637 | 69 | 214 | 1.0 | 3.0 | 0.00 | 0.00 | 0.00 | 78 | 1012.2 |
| 20260903073133 | 69 | 130 | 1.0 | 3.0 | 0.00 | 0.00 | 0.00 | 78 | 1012.5 |
| 20260903072629 | 69 | 141 | 2.0 | 3.0 | 0.00 | 0.00 | 0.00 | 78 | 1012.5 |
| 20260903072125 | 69 | 12 | 2.0 | 3.0 | 0.00 | 0.00 | 0.00 | 78 | 1012.5 |
| 20260903071622 | 69 | 119 | 1.0 | 3.0 | 0.00 | 0.00 | 0.00 | 77 | 1012.8 |
| 20260903071117 | 69 | 77 | 2.0 | 8.0 | 0.00 | 0.00 | 0.00 | 77 | 1012.6 |
| 20260903070617 | 70 | 71 | 2.0 | 4.0 | 0.00 | 0.00 | 0.00 | 77 | 1012.8 |
| 20260903070113 | 70 | 87 | 3.0 | 4.0 | 0.00 | 0.00 | 0.00 | 78 | 1012.6 |
| 20260903065612 | 70 | 95 | 2.0 | 3.0 | 0.00 | 0.00 | 0.00 | 78 | 1012.9 |
| 20260903065106 | 70 | 82 | 1.0 | 2.0 | 0.00 | 0.00 | 0.00 | 79 | 1013.0 |
| 20260903064600 | 70 | 118 | 1.0 | 4.0 | 0.00 | 0.00 | 0.00 | 78 | 1013.2 |
| 20260903064055 | 70 | 125 | 0.0 | 2.0 | 0.00 | 0.00 | 0.00 | 78 | 1013.1 |
| 20260903063550 | 70 | 66 | 2.0 | 3.0 | 0.00 | 0.00 | 0.00 | 77 | 1013.0 |
| 20260903063046 | 70 | 48 | 1.0 | 2.0 | 0.00 | 0.00 | 0.00 | 77 | 1012.9 |
| 20260903062541 | 70 | 108 | 1.0 | 3.0 | 0.00 | 0.00 | 0.00 | 77 | 1013.0 |
| 20260903062037 | 71 | 119 | 3.0 | 3.0 | 0.00 | 0.00 | 0.00 | 77 | 1013.2 |
| 20260903061532 | 70 | 55 | 0.0 | 3.0 | 0.00 | 0.00 | 0.00 | 77 | 1013.1 |
| 20260903061032 | 70 | 73 | 3.0 | 6.0 | 0.00 | 0.00 | 0.00 | 76 | 1013.0 |
| 20260903060531 | 71 | 69 | 1.0 | 3.0 | 0.00 | 0.00 | 0.00 | 76 | 1012.9 |
| 20260903060027 | 70 | 120 | 0.0 | 3.0 | 0.00 | 0.00 | 0.00 | 77 | 1012.9 |
| 20260903055524 | 70 | 148 | 0.0 | 3.0 | 0.00 | 0.00 | 0.00 | 77 | 1013.1 |
| 20260903055023 | 70 | 123 | 1.0 | 3.0 | 0.00 | 0.00 | 0.00 | 77 | 1013.0 |
| 20260903054518 | 70 | 189 | 0.0 | 4.0 | 0.00 | 0.00 | 0.00 | 77 | 1013.2 |
| 20260903054014 | 70 | 138 | 0.0 | 2.0 | 0.00 | 0.00 | 0.00 | 77 | 1013.0 |
| 20260903053508 | 71 | 109 | 1.0 | 2.0 | 0.00 | 0.00 | 0.00 | 77 | 1013.0 |